USA 148

Last updated on March 8, 2021, 6:42 a.m. UTC

1 26052U 00001A   21066.71920689  .00000024  00000-0  00000-0 0  9999
2 26052   8.8142  45.1224 0002389 334.3436 225.3528  1.00273443 13630
UTC
Height (km)
Latitude
Longitude
Inclination
Orbital Period
UTC large
Height (km)
Speed (km/s)
/
Latitude / Longitude
Inclination (degrees)
Orbital Period (minutes)
Azimuth
Elevation
Range (km)
Doppler Factor
iOS Compass Heading
iOS Angle

Next 30 passes for location: Hong Kong

Rise time Rise Azimuth (degrees) Set time Set Azimuth (degrees) Duration Max altitude (degrees)

No matching passes for this satellites